Tracking 35035 objects as of 16-Aug-2026
HD Live streaming from Space Station
objects crossing your sky now

COSMOS 1351


COSMOS 1351 is no longer on orbit


NORAD ID: 13142
Int'l Code: 1982-034A
Launch date: April 21, 1982
Source: Commonwealth of Independent States (former USSR) (CIS)
Launch site: KAPUSTIN YAR MISSILE AND SPACE COMPLEX (KYMTR)
Decay date: 1983-03-14
Your satellite tracking list
Your tracking list is empty




NASA's NSSDC Master Catalog

Two Line Element Set (TLE):
1 13142U 82034  A 83073.14842192  .09757796 +56539-4 +49833-3 0  9992
2 13142 050.6593 287.7853 0003143 330.7741 029.5189 16.42736032051078
Source of the keplerian elements: AFSPC